DW9307 Weather Reports


Display with metric or nautical units.
time (UTC)temp
F
wind
direction
speed
MPH
gust
MPH
rain 1hr
in
rain 24hr
in
rain mn
in
humidity
%
barometer
mb
20211203230143 55 110 0.0 1.0 0.00 0.00 0.00 82 1018.3
20211203225638 55 110 0.0 1.0 0.00 0.00 0.00 82 1018.3
20211203225133 56 110 0.0 1.0 0.00 0.00 0.00 80 1018.3
20211203224626 56 110 0.0 1.0 0.00 0.00 0.00 80 1018.2
20211203224120 56 110 0.0 1.0 0.00 0.00 0.00 79 1018.1
20211203223614 57 110 0.0 1.0 0.00 0.00 0.00 78 1018.1
20211203223109 57 110 0.0 1.0 0.00 0.00 0.00 77 1018.2
20211203222602 58 110 0.0 1.0 0.00 0.00 0.00 76 1018.1
20211203222057 59 110 0.0 1.0 0.00 0.00 0.00 74 1018.0
20211203221550 60 111 1.0 3.0 0.00 0.00 0.00 73 1018.0
20211203221043 60 112 1.0 3.0 0.00 0.00 0.00 72 1017.8
20211203220539 60 144 1.0 3.0 0.00 0.00 0.00 72 1017.7
20211203220031 61 144 2.0 4.0 0.00 0.00 0.00 71 1017.6
20211203215526 61 144 2.0 4.0 0.00 0.00 0.00 70 1017.6
20211203215020 62 137 2.0 4.0 0.00 0.00 0.00 69 1017.5
20211203214514 62 137 2.0 5.0 0.00 0.00 0.00 67 1017.4
20211203214007 63 137 2.0 5.0 0.00 0.00 0.00 66 1017.5
20211203213502 64 137 2.0 6.0 0.00 0.00 0.00 65 1017.4
20211203212956 64 116 2.0 6.0 0.00 0.00 0.00 65 1017.4
20211203212449 64 155 2.0 5.0 0.00 0.00 0.00 65 1017.4
20211203211951 65 155 2.0 5.0 0.00 0.00 0.00 65 1017.4
20211203211453 65 155 1.0 5.0 0.00 0.00 0.00 66 1017.3
20211203210949 66 30 0.0 1.0 0.00 0.00 0.00 65 1017.3
20211203210449 66 30 0.0 1.0 0.00 0.00 0.00 64 1017.2
20211203205948 66 30 0.0 1.0 0.00 0.00 0.00 65 1017.1
20211203205449 65 30 0.0 1.0 0.00 0.00 0.00 66 1017.1
20211203204948 65 30 0.0 1.0 0.00 0.00 0.00 65 1017.1
20211203204447 64 30 0.0 2.0 0.00 0.00 0.00 67 1017.1
20211203203946 64 30 1.0 2.0 0.00 0.00 0.00 66 1017.2
20211203203442 65 41 1.0 3.0 0.00 0.00 0.00 64 1017.1
20211203202943 65 65 1.0 3.0 0.00 0.00 0.00 63 1017.1
20211203202443 65 59 1.0 3.0 0.00 0.00 0.00 63 1017.0
20211203201943 65 91 1.0 4.0 0.00 0.00 0.00 63 1017.0
20211203201443 65 84 2.0 4.0 0.00 0.00 0.00 62 1017.0
20211203200943 65 96 2.0 4.0 0.00 0.00 0.00 60 1017.0
20211203200444 66 65 2.0 5.0 0.00 0.00 0.00 59 1017.0
20211203195939 66 99 2.0 5.0 0.00 0.00 0.00 59 1016.9
20211203195440 66 76 2.0 3.0 0.00 0.00 0.00 59 1016.9
20211203194939 67 80 1.0 3.0 0.00 0.00 0.00 58 1016.9
20211203194440 67 83 2.0 4.0 0.00 0.00 0.00 58 1017.0
20211203193939 66 84 3.0 5.0 0.00 0.00 0.00 58 1017.0
20211203193438 67 85 3.0 5.0 0.00 0.00 0.00 56 1016.9
20211203192939 67 77 3.0 4.0 0.00 0.00 0.00 57 1016.8
20211203192440 66 88 3.0 4.0 0.00 0.00 0.00 56 1016.9
20211203191940 66 87 4.0 6.0 0.00 0.00 0.00 57 1016.9
20211203191434 66 83 5.0 6.0 0.00 0.00 0.00 58 1016.9
20211203190936 66 83 5.0 6.0 0.00 0.00 0.00 58 1016.9
20211203190435 66 88 4.0 5.0 0.00 0.00 0.00 57 1016.9
20211203185935 66 76 4.0 6.0 0.00 0.00 0.00 57 1016.9
20211203185435 66 88 4.0 7.0 0.00 0.00 0.00 56 1016.9
20211203184935 66 82 4.0 7.0 0.00 0.00 0.00 55 1016.8
20211203184436 66 79 4.0 7.0 0.00 0.00 0.00 56 1017.0
20211203183936 66 87 5.0 7.0 0.00 0.00 0.00 55 1017.0
20211203183436 66 90 4.0 7.0 0.00 0.00 0.00 55 1017.0
20211203182932 66 82 3.0 6.0 0.00 0.00 0.00 56 1017.0
20211203182434 66 84 2.0 5.0 0.00 0.00 0.00 56 1017.0
20211203181930 66 83 3.0 6.0 0.00 0.00 0.00 55 1016.8
20211203181431 66 55 3.0 6.0 0.00 0.00 0.00 55 1016.7
20211203180932 66 77 4.0 6.0 0.00 0.00 0.00 56 1016.8
20211203180432 65 82 5.0 7.0 0.00 0.00 0.00 58 1016.9
20211203175931 65 76 5.0 7.0 0.00 0.00 0.00 58 1017.0
20211203175432 65 83 5.0 7.0 0.00 0.00 0.00 56 1017.0
20211203174933 65 80 4.0 7.0 0.00 0.00 0.00 56 1017.0
20211203174426 65 84 4.0 6.0 0.00 0.00 0.00 57 1017.0
20211203173923 65 88 4.0 6.0 0.00 0.00 0.00 56 1017.1
20211203173422 65 82 4.0 6.0 0.00 0.00 0.00 56 1017.0
20211203172922 65 85 4.0 6.0 0.00 0.00 0.00 56 1016.9
20211203172423 65 90 4.0 6.0 0.00 0.00 0.00 57 1016.9
20211203171924 65 89 4.0 6.0 0.00 0.00 0.00 58 1016.9
20211203171423 65 79 4.0 5.0 0.00 0.00 0.00 59 1016.9
20211203170920 65 84 4.0 5.0 0.00 0.00 0.00 59 1016.8
20211203170419 65 70 4.0 5.0 0.00 0.00 0.00 58 1016.9
20211203165918 65 85 4.0 6.0 0.00 0.00 0.00 59 1017.0
20211203165425 65 96 5.0 8.0 0.00 0.00 0.00 58 1017.0
20211203164921 65 81 4.0 8.0 0.00 0.00 0.00 58 1017.1
20211203164418 65 77 3.0 6.0 0.00 0.00 0.00 58 1017.1
20211203163919 65 99 3.0 6.0 0.00 0.00 0.00 59 1017.3
20211203163418 65 89 4.0 6.0 0.00 0.00 0.00 59 1017.3
20211203162916 66 74 3.0 6.0 0.00 0.00 0.00 58 1017.4
20211203162414 66 78 3.0 6.0 0.00 0.00 0.00 57 1017.4
20211203161915 66 53 2.0 6.0 0.00 0.00 0.00 58 1017.4
20211203161415 66 80 2.0 4.0 0.00 0.00 0.00 58 1017.5
20211203160910 66 44 2.0 4.0 0.00 0.00 0.00 57 1017.5
20211203160410 65 54 3.0 8.0 0.00 0.00 0.00 58 1017.4
20211203155906 65 72 3.0 8.0 0.00 0.00 0.00 58 1017.5
20211203155406 65 68 2.0 6.0 0.00 0.00 0.00 58 1017.5
20211203154906 65 69 2.0 5.0 0.00 0.00 0.00 58 1017.5
20211203154406 65 14 2.0 4.0 0.00 0.00 0.00 60 1017.5
20211203153906 65 68 2.0 4.0 0.00 0.00 0.00 61 1017.5
20211203153406 64 58 2.0 4.0 0.00 0.00 0.00 61 1017.4
20211203152907 64 66 1.0 4.0 0.00 0.00 0.00 61 1017.4
20211203152405 64 61 1.0 3.0 0.00 0.00 0.00 62 1017.6
20211203151905 64 46 1.0 6.0 0.00 0.00 0.00 63 1017.6
20211203151400 64 45 2.0 6.0 0.00 0.00 0.00 64 1017.6
20211203150900 63 56 1.0 5.0 0.00 0.00 0.00 64 1017.6
20211203150400 63 53 2.0 6.0 0.00 0.00 0.00 65 1017.7
20211203145859 63 57 2.0 6.0 0.00 0.00 0.00 65 1017.7
20211203145359 63 65 2.0 5.0 0.00 0.00 0.00 64 1017.8
20211203144855 63 40 1.0 6.0 0.00 0.00 0.00 65 1017.7
20211203144354 62 33 1.0 6.0 0.00 0.00 0.00 65 1017.8
20211203143856 62 358 2.0 7.0 0.00 0.00 0.00 66 1017.7
20211203143355 62 29 2.0 7.0 0.00 0.00 0.00 67 1017.6
20211203142849 62 325 2.0 7.0 0.00 0.00 0.00 66 1017.5
20211203142346 62 349 2.0 6.0 0.00 0.00 0.00 67 1017.6
20211203141837 61 350 2.0 8.0 0.00 0.00 0.00 67 1017.6
20211203141331 61 35 2.0 8.0 0.00 0.00 0.00 68 1017.4
20211203140825 61 348 1.0 6.0 0.00 0.00 0.00 68 1017.3
20211203140319 61 43 1.0 6.0 0.00 0.00 0.00 69 1017.3
20211203135813 60 6 2.0 7.0 0.00 0.00 0.00 69 1017.2
20211203135307 60 331 2.0 7.0 0.00 0.00 0.00 70 1017.3
20211203134801 60 294 1.0 7.0 0.00 0.00 0.00 71 1017.2
20211203134255 60 33 1.0 7.0 0.00 0.00 0.00 71 1017.3
20211203133749 60 334 1.0 5.0 0.00 0.00 0.00 72 1017.2
20211203133244 59 348 1.0 5.0 0.00 0.00 0.00 73 1017.2
20211203132737 59 272 1.0 2.0 0.00 0.00 0.00 74 1017.1
20211203132231 59 272 0.0 2.0 0.00 0.00 0.00 75 1016.9
20211203131725 58 259 0.0 2.0 0.00 0.00 0.00 76 1016.7
20211203131219 58 259 1.0 2.0 0.00 0.00 0.00 76 1016.6
20211203130713 57 259 0.0 2.0 0.00 0.00 0.00 78 1016.5
20211203130207 56 259 1.0 4.0 0.00 0.00 0.00 79 1016.5
20211203125701 55 254 2.0 4.0 0.00 0.00 0.00 79 1016.4
20211203125155 55 253 2.0 3.0 0.00 0.00 0.00 78 1016.3
20211203124649 55 273 2.0 3.0 0.00 0.00 0.00 80 1016.3
20211203124143 54 270 1.0 3.0 0.00 0.00 0.00 80 1016.3
20211203123636 54 281 2.0 4.0 0.00 0.00 0.00 81 1016.3
20211203123130 53 281 3.0 5.0 0.00 0.00 0.00 81 1016.1
20211203122625 53 265 3.0 5.0 0.00 0.00 0.00 81 1015.9
20211203122119 53 270 3.0 5.0 0.00 0.00 0.00 81 1016.0
20211203121613 53 262 3.0 5.0 0.00 0.00 0.00 81 1015.9
20211203121106 53 267 2.0 4.0 0.00 0.00 0.00 81 1016.0
20211203120601 53 263 2.0 3.0 0.00 0.00 0.00 80 1015.9
20211203120055 54 268 2.0 4.0 0.00 0.00 0.00 80 1015.9
20211203115549 54 269 2.0 4.0 0.00 0.00 0.00 80 1015.8
20211203115043 54 280 2.0 5.0 0.00 0.00 0.00 79 1015.8
20211203114537 54 286 3.0 5.0 0.00 0.00 0.00 79 1015.7
20211203114031 55 248 2.0 5.0 0.00 0.00 0.00 79 1015.5
20211203113525 55 284 2.0 5.0 0.00 0.00 0.00 79 1015.5
20211203113019 55 279 3.0 5.0 0.00 0.00 0.00 78 1015.5
20211203112513 55 274 2.0 5.0 0.00 0.00 0.00 78 1015.4
20211203112008 55 276 2.0 7.0 0.00 0.00 0.00 78 1015.4
20211203111501 55 264 3.0 7.0 0.00 0.00 0.00 78 1015.3
20211203110956 55 276 4.0 7.0 0.00 0.00 0.00 78 1015.3
20211203110449 55 282 4.0 7.0 0.00 0.00 0.00 78 1015.2
20211203105945 56 266 3.0 5.0 0.00 0.00 0.00 77 1015.2
20211203105438 56 249 3.0 5.0 0.00 0.00 0.00 77 1015.2
20211203104931 56 277 3.0 6.0 0.00 0.00 0.00 77 1015.0
20211203104425 56 270 2.0 6.0 0.00 0.00 0.00 77 1014.8
20211203103920 56 272 2.0 5.0 0.00 0.00 0.00 77 1014.8
20211203103413 56 272 2.0 6.0 0.00 0.00 0.00 77 1014.8
20211203102907 56 285 3.0 6.0 0.00 0.00 0.00 77 1014.8
20211203102401 56 300 2.0 6.0 0.00 0.00 0.00 77 1014.7
20211203101855 56 276 2.0 6.0 0.00 0.00 0.00 77 1014.7
20211203101349 56 284 3.0 6.0 0.00 0.00 0.00 76 1014.6
20211203100843 57 301 3.0 8.0 0.00 0.00 0.00 76 1014.5
20211203100338 57 265 4.0 10.0 0.00 0.00 0.00 75 1014.4
20211203095832 57 329 4.0 10.0 0.00 0.00 0.00 75 1014.3
20211203095326 57 245 3.0 6.0 0.00 0.00 0.00 75 1014.3
20211203094819 57 303 2.0 8.0 0.00 0.00 0.00 75 1014.4
20211203094313 57 262 2.0 8.0 0.00 0.00 0.00 75 1014.3
20211203093807 57 338 1.0 6.0 0.00 0.00 0.00 75 1014.3
20211203093301 58 14 3.0 11.0 0.00 0.00 0.00 74 1014.2
20211203092755 58 285 5.0 11.0 0.00 0.00 0.00 74 1014.2
20211203092249 58 274 5.0 11.0 0.00 0.00 0.00 74 1014.2
20211203091743 58 275 4.0 10.0 0.00 0.00 0.00 74 1014.1
20211203091237 58 282 3.0 8.0 0.00 0.00 0.00 74 1014.1
20211203090731 58 292 4.0 8.0 0.00 0.00 0.00 74 1014.0
20211203090226 58 291 4.0 8.0 0.00 0.00 0.00 74 1013.9
20211203085718 58 268 4.0 10.0 0.00 0.00 0.00 74 1013.8
20211203085214 58 256 3.0 6.0 0.00 0.00 0.00 74 1013.7
20211203084707 58 270 3.0 8.0 0.00 0.00 0.00 73 1013.8
20211203084201 59 286 5.0 8.0 0.00 0.00 0.00 73 1013.7
20211203083655 59 286 5.0 9.0 0.00 0.00 0.00 73 1013.7
20211203083155 59 282 4.0 9.0 0.00 0.00 0.00 73 1013.7
20211203082655 59 241 4.0 11.0 0.00 0.00 0.00 73 1013.6
20211203082155 59 260 3.0 11.0 0.00 0.00 0.00 73 1013.6
20211203081655 59 276 3.0 9.0 0.00 0.00 0.00 73 1013.7
20211203081154 59 327 4.0 12.0 0.00 0.00 0.00 72 1013.8
20211203080651 59 275 5.0 12.0 0.00 0.00 0.00 72 1013.8
20211203080152 59 277 4.0 9.0 0.00 0.00 0.00 73 1013.5
20211203075652 59 296 5.0 11.0 0.00 0.00 0.00 73 1013.6
20211203075152 59 299 5.0 11.0 0.00 0.00 0.00 73 1013.5
20211203074652 59 272 5.0 11.0 0.00 0.00 0.00 74 1013.7
20211203074152 58 272 5.0 11.0 0.00 0.00 0.00 75 1013.6
20211203073651 58 278 4.0 9.0 0.00 0.00 0.00 76 1013.6
20211203073151 57 256 4.0 9.0 0.00 0.00 0.00 76 1013.5
20211203072649 57 265 4.0 8.0 0.00 0.00 0.00 77 1013.5
20211203072147 57 263 4.0 10.0 0.00 0.00 0.00 77 1013.6
20211203071645 57 280 4.0 10.0 0.00 0.00 0.00 78 1013.7
20211203071143 57 270 4.0 7.0 0.00 0.00 0.00 78 1013.6
20211203070644 56 282 4.0 7.0 0.00 0.00 0.00 78 1013.6
20211203070143 56 246 3.0 6.0 0.00 0.00 0.00 78 1013.7
20211203065641 56 258 3.0 6.0 0.00 0.00 0.00 79 1013.7
20211203065142 56 282 3.0 6.0 0.00 0.00 0.00 79 1013.7
20211203064639 56 265 3.0 6.0 0.00 0.00 0.00 79 1013.6
20211203064140 56 253 2.0 5.0 0.00 0.00 0.00 80 1013.5
20211203063641 56 277 2.0 5.0 0.00 0.00 0.00 80 1013.5
20211203063141 56 281 1.0 5.0 0.00 0.00 0.00 81 1013.5
20211203062639 55 311 0.0 4.0 0.00 0.00 0.00 81 1013.5
20211203062141 55 280 0.0 4.0 0.00 0.00 0.00 81 1013.4
20211203061636 55 280 0.0 4.0 0.00 0.00 0.00 81 1013.6
20211203061138 55 269 0.0 3.0 0.00 0.00 0.00 80 1013.6
20211203060636 56 269 1.0 3.0 0.00 0.00 0.00 80 1013.6
20211203060137 56 267 1.0 3.0 0.00 0.00 0.00 80 1013.5
20211203055636 56 286 1.0 3.0 0.00 0.00 0.00 80 1013.5
20211203055138 56 285 2.0 3.0 0.00 0.00 0.00 80 1013.5
20211203054636 56 277 2.0 5.0 0.00 0.00 0.00 79 1013.5
20211203054140 57 277 2.0 5.0 0.00 0.00 0.00 79 1013.5
20211203053638 57 267 2.0 4.0 0.00 0.00 0.00 79 1013.4
20211203053134 57 271 2.0 5.0 0.00 0.00 0.00 78 1013.5
20211203052633 58 275 2.0 5.0 0.00 0.00 0.00 78 1013.5
20211203052134 58 283 3.0 6.0 0.00 0.00 0.00 77 1013.5
20211203051633 58 291 3.0 7.0 0.00 0.00 0.00 77 1013.6
20211203051133 58 274 4.0 7.0 0.00 0.00 0.00 77 1013.4
20211203050633 59 272 5.0 8.0 0.00 0.00 0.00 77 1013.4
20211203050132 59 281 5.0 8.0 0.00 0.00 0.00 77 1013.5
20211203045632 59 276 6.0 11.0 0.00 0.00 0.00 77 1013.6
20211203045132 59 270 6.0 11.0 0.00 0.00 0.00 76 1013.4
20211203044627 59 280 6.0 10.0 0.00 0.00 0.00 77 1013.3
20211203044127 59 265 6.0 10.0 0.00 0.00 0.00 77 1013.4
20211203043628 59 258 5.0 9.0 0.00 0.00 0.00 76 1013.5
20211203043127 59 268 5.0 10.0 0.00 0.00 0.00 76 1013.6
20211203042630 60 277 6.0 12.0 0.00 0.00 0.00 75 1013.7
20211203042128 60 275 6.0 12.0 0.00 0.00 0.00 75 1013.8
20211203041629 60 274 5.0 10.0 0.00 0.00 0.00 75 1013.8
20211203041127 60 279 5.0 10.0 0.00 0.00 0.00 74 1013.9
20211203040629 60 258 6.0 11.0 0.00 0.00 0.00 74 1013.9
20211203040125 60 285 8.0 14.0 0.00 0.00 0.00 74 1013.7
20211203035625 60 267 8.0 14.0 0.00 0.00 0.00 74 1013.7
20211203035125 60 267 8.0 12.0 0.00 0.00 0.00 75 1013.5
20211203034625 60 253 9.0 13.0 0.00 0.00 0.00 75 1013.4
20211203034125 60 265 9.0 13.0 0.00 0.00 0.00 75 1013.5
20211203033625 60 265 8.0 12.0 0.00 0.00 0.00 76 1013.5
20211203033127 60 252 8.0 13.0 0.00 0.00 0.00 76 1013.6
20211203032627 60 244 8.0 13.0 0.00 0.00 0.00 76 1013.7
20211203032126 60 267 9.0 15.0 0.00 0.00 0.00 76 1013.9
20211203031627 60 266 9.0 15.0 0.00 0.00 0.00 77 1013.8
20211203031120 60 249 8.0 14.0 0.00 0.00 0.00 77 1013.8
20211203030614 60 253 9.0 15.0 0.00 0.00 0.00 77 1013.9
20211203030109 60 270 9.0 15.0 0.00 0.00 0.00 78 1013.9
20211203025602 60 261 8.0 12.0 0.00 0.00 0.00 78 1013.9
20211203025056 60 263 8.0 14.0 0.00 0.00 0.00 78 1014.0
20211203024550 60 275 8.0 14.0 0.00 0.00 0.00 78 1013.9
20211203024044 59 265 8.0 14.0 0.00 0.00 0.00 79 1014.0
20211203023539 60 263 9.0 14.0 0.00 0.00 0.00 79 1014.1
20211203023033 60 250 9.0 12.0 0.00 0.00 0.00 78 1014.2
20211203022532 60 265 9.0 12.0 0.00 0.00 0.00 78 1014.2
20211203022031 60 261 9.0 12.0 0.00 0.00 0.00 78 1014.3
20211203021529 60 271 8.0 13.0 0.00 0.00 0.00 78 1014.3
20211203021029 60 273 8.0 13.0 0.00 0.00 0.00 78 1014.3
20211203020531 60 253 9.0 14.0 0.00 0.00 0.00 77 1014.4
20211203020032 60 258 9.0 14.0 0.00 0.00 0.00 77 1014.3
20211203015529 60 257 9.0 16.0 0.00 0.00 0.00 76 1014.4
20211203015029 60 260 10.0 16.0 0.00 0.00 0.00 76 1014.5
20211203014531 60 249 9.0 14.0 0.00 0.00 0.00 75 1014.6
20211203014031 60 252 9.0 14.0 0.00 0.00 0.00 75 1014.5
20211203013529 60 265 8.0 14.0 0.00 0.00 0.00 76 1014.5
20211203013028 60 287 8.0 13.0 0.00 0.00 0.00 76 1014.6
20211203012529 60 267 8.0 12.0 0.00 0.00 0.00 76 1014.5
20211203012029 60 256 7.0 11.0 0.00 0.00 0.00 76 1014.4
20211203011529 60 275 7.0 16.0 0.00 0.00 0.00 76 1014.5
20211203011027 60 254 6.0 16.0 0.00 0.00 0.00 76 1014.4
20211203010528 59 255 5.0 8.0 0.00 0.00 0.00 76 1014.5
20211203010022 59 246 5.0 8.0 0.00 0.00 0.00 76 1014.3
20211203005516 59 255 5.0 9.0 0.00 0.00 0.00 76 1014.3
20211203005009 59 248 5.0 9.0 0.00 0.00 0.00 77 1014.3
20211203004504 59 252 6.0 9.0 0.00 0.00 0.00 77 1014.3
20211203003958 59 239 5.0 8.0 0.00 0.00 0.00 77 1014.4
20211203003452 59 241 6.0 10.0 0.00 0.00 0.00 77 1014.4
20211203002946 60 262 7.0 11.0 0.00 0.00 0.00 77 1014.4
20211203002440 60 255 7.0 11.0 0.00 0.00 0.00 78 1014.3
20211203001934 59 234 6.0 10.0 0.00 0.00 0.00 78 1014.2
20211203001428 59 251 6.0 11.0 0.00 0.00 0.00 79 1014.4
20211203000922 59 254 6.0 11.0 0.00 0.00 0.00 79 1014.4
20211203000416 59 258 6.0 9.0 0.00 0.00 0.00 80 1014.3
20211202235915 59 256 5.0 9.0 0.00 0.00 0.00 80 1014.4
20211202235405 59 256 4.0 7.0 0.00 0.00 0.00 80 1014.4
20211202234858 59 263 5.0 9.0 0.00 0.00 0.00 80 1014.4
20211202234352 59 250 6.0 9.0 0.00 0.00 0.00 80 1014.4
20211202233846 59 253 5.0 8.0 0.00 0.00 0.00 79 1014.3
20211202233339 59 250 5.0 8.0 0.00 0.00 0.00 79 1014.4
20211202232834 59 241 5.0 7.0 0.00 0.00 0.00 79 1014.4
20211202232328 59 256 5.0 8.0 0.00 0.00 0.00 79 1014.4
20211202231822 60 237 6.0 9.0 0.00 0.00 0.00 78 1014.3
20211202231316 60 234 6.0 9.0 0.00 0.00 0.00 78 1014.3
20211202230810 60 248 5.0 9.0 0.00 0.00 0.00 78 1014.2